DW9313 Weather Reports


time (UTC)temp
C
wind
direction
speed
KPH
gust
KPH
rain 1hr
cm
rain 24hr
cm
rain mn
cm
humidity
%
barometer
mb
20260904171259 18 291 9.7 14.5 0.00 0.89 0.05 72 1017.2
20260904170301 18 276 4.8 16.1 0.00 0.89 0.05 74 1017.1
20260904165759 18 291 8.0 16.1 0.00 0.89 0.05 74 1017.0
20260904164807 17 277 8.0 16.1 0.00 0.89 0.05 75 1016.9
20260904164306 17 278 6.4 19.3 0.00 0.89 0.05 75 1016.9
20260904163300 17 295 4.8 11.3 0.00 0.89 0.05 77 1016.7
20260904162805 17 284 9.7 14.5 0.00 0.89 0.05 76 1016.7
20260904162305 17 286 9.7 16.1 0.00 0.89 0.05 75 1016.6
20260904161759 17 287 8.0 14.5 0.00 0.89 0.05 74 1016.5
20260904160800 18 279 9.7 22.5 0.00 0.89 0.05 73 1016.4
20260904160300 18 293 8.0 19.3 0.00 0.89 0.05 73 1016.4
20260904155800 18 290 11.3 20.9 0.00 0.89 0.05 72 1016.3
20260904154300 17 284 9.7 16.1 0.00 0.89 0.05 73 1016.3
20260904153800 17 282 11.3 19.3 0.00 0.89 0.05 73 1016.2
20260904152800 17 288 9.7 20.9 0.00 0.89 0.05 73 1016.3
20260904152300 17 279 11.3 24.1 0.00 0.89 0.05 74 1016.2
20260904151801 18 285 9.7 20.9 0.00 0.89 0.05 75 1016.2
20260904151302 18 263 8.0 11.3 0.00 0.89 0.05 75 1016.2
20260904150800 18 294 8.0 19.3 0.00 0.89 0.05 77 1016.0
20260904145800 17 289 8.0 16.1 0.00 0.89 0.05 77 1016.1
20260904145300 18 273 12.9 20.9 0.00 0.89 0.05 74 1015.9
20260904144801 18 279 9.7 20.9 0.00 0.89 0.05 74 1015.8
20260904144300 18 293 11.3 22.5 0.00 0.89 0.05 75 1015.8
20260904143801 17 286 8.0 14.5 0.00 0.89 0.05 77 1015.8
20260904143300 17 287 3.2 9.7 0.00 0.89 0.05 80 1015.8
20260904142802 17 275 3.2 9.7 0.00 0.89 0.05 79 1015.8
20260904142300 17 284 3.2 12.9 0.00 0.89 0.05 79 1015.7
20260904141301 17 283 9.7 16.1 0.00 0.89 0.05 78 1015.7
20260904140800 17 282 9.7 22.5 0.00 0.89 0.05 77 1015.7
20260904140301 17 288 9.7 12.9 0.00 0.89 0.05 77 1015.6
20260904135801 17 284 4.8 9.7 0.00 0.89 0.05 78 1015.6
20260904134802 17 287 8.0 11.3 0.00 0.89 0.05 77 1015.6
20260904134301 17 293 4.8 11.3 0.00 0.89 0.05 76 1015.6
20260904133801 17 308 1.6 9.7 0.00 0.89 0.05 77 1015.7
20260904133300 17 300 3.2 9.7 0.00 0.89 0.05 76 1015.7
20260904132802 17 291 4.8 16.1 0.00 0.89 0.05 76 1015.7
20260904131801 17 294 6.4 11.3 0.00 0.89 0.05 74 1015.6
20260904131301 17 288 4.8 20.9 0.00 0.89 0.05 74 1015.5
20260904130802 17 280 6.4 20.9 0.00 0.89 0.05 76 1015.5
20260904130300 17 289 9.7 22.5 0.00 0.89 0.05 76 1015.4
20260904125801 17 272 3.2 14.5 0.00 0.89 0.05 77 1015.3
20260904125305 17 295 11.3 20.9 0.00 0.89 0.05 76 1015.2
20260904124803 17 304 9.7 22.5 0.00 0.89 0.05 75 1015.1
20260904124301 17 299 9.7 22.5 0.00 0.89 0.05 75 1015.1
20260904123801 17 277 11.3 24.1 0.00 0.89 0.05 73 1014.9
20260904123302 17 286 6.4 24.1 0.00 0.89 0.05 74 1014.9
20260904122306 17 293 9.7 20.9 0.00 0.89 0.05 73 1014.8
20260904121801 17 278 9.7 22.5 0.00 0.89 0.05 75 1014.8
20260904121301 17 294 6.4 14.5 0.00 0.89 0.05 75 1014.7
20260904120302 18 281 8.0 19.3 0.00 0.89 0.05 72 1014.7
20260904115802 18 299 9.7 20.9 0.00 0.89 0.05 72 1014.6
20260904115306 17 288 6.4 14.5 0.00 0.89 0.05 74 1014.6
20260904114802 17 277 11.3 22.5 0.00 0.89 0.05 74 1014.6
20260904113802 17 296 11.3 24.1 0.00 0.89 0.05 74 1014.4
20260904113303 17 291 11.3 27.4 0.00 0.89 0.05 73 1014.3
20260904112803 17 302 9.7 27.4 0.00 0.89 0.05 74 1014.5
20260904112305 17 270 9.7 20.9 0.00 0.89 0.05 74 1014.6
20260904111803 17 290 11.3 25.7 0.00 0.89 0.05 74 1014.3
20260904110802 17 282 11.3 20.9 0.00 0.89 0.05 75 1014.2
20260904110302 17 280 14.5 24.1 0.00 0.89 0.05 76 1014.1
20260904105305 16 287 12.9 22.5 0.00 0.89 0.05 76 1013.9
20260904104302 16 287 9.7 22.5 0.00 0.89 0.05 76 1014.0
20260904103803 16 294 11.3 20.9 0.00 0.89 0.05 76 1014.0
20260904103303 16 287 11.3 25.7 0.00 0.89 0.05 75 1013.9
20260904102306 16 279 14.5 29.0 0.00 0.89 0.05 75 1013.8
20260904101302 16 285 9.7 19.3 0.00 0.89 0.05 76 1013.7
20260904100803 16 286 9.7 22.5 0.00 0.89 0.05 76 1013.7
20260904100305 16 290 12.9 22.5 0.00 0.89 0.05 75 1013.7
20260904095306 16 292 9.7 24.1 0.00 0.89 0.05 76 1013.7
20260904094803 16 296 11.3 22.5 0.00 0.89 0.05 77 1013.7
20260904094303 16 290 11.3 22.5 0.00 0.89 0.05 76 1013.6
20260904093804 16 292 17.7 29.0 0.00 0.89 0.05 76 1013.5
20260904093304 16 277 14.5 25.7 0.00 0.89 0.05 76 1013.4
20260904092803 16 284 11.3 19.3 0.00 0.89 0.05 77 1013.3
20260904092306 15 288 11.3 22.5 0.00 0.89 0.05 78 1013.2
20260904091805 15 294 11.3 16.1 0.00 0.89 0.05 78 1013.1
20260904091303 15 282 12.9 25.7 0.00 0.89 0.05 78 1013.2
20260904090803 15 278 11.3 19.3 0.00 0.89 0.05 78 1013.0
20260904090304 15 279 12.9 14.5 0.00 0.89 0.05 77 1013.0
20260904085803 15 269 14.5 22.5 0.00 0.89 0.05 77 1013.0
20260904085305 15 288 14.5 19.3 0.00 0.89 0.05 78 1013.0
20260904084805 15 286 11.3 20.9 0.00 0.89 0.05 79 1013.0
20260904083804 15 296 8.0 25.7 0.00 0.89 0.05 79 1012.7
20260904082804 15 286 11.3 20.9 0.00 0.89 0.05 78 1012.6
20260904082305 15 296 14.5 25.7 0.00 0.89 0.05 78 1012.3
20260904081805 15 288 16.1 27.4 0.00 0.89 0.05 78 1012.3
20260904081303 15 290 11.3 22.5 0.00 0.89 0.05 78 1012.4
20260904080805 15 290 12.9 22.5 0.00 0.89 0.05 78 1012.2
20260904080304 15 281 11.3 19.3 0.00 0.89 0.05 78 1012.3
20260904075804 15 286 11.3 24.1 0.00 0.89 0.05 77 1012.2
20260904074805 15 284 9.7 19.3 0.00 0.89 0.05 78 1012.2
20260904073803 15 290 9.7 20.9 0.00 0.89 0.05 78 1012.1
20260904072804 15 282 9.7 19.3 0.00 0.89 0.05 79 1012.1
20260904071806 15 285 4.8 9.7 0.00 0.89 0.05 79 1012.1
20260904070304 15 283 4.8 11.3 0.00 0.89 0.05 80 1011.9
20260904065804 15 297 3.2 11.3 0.00 0.89 0.05 80 1011.8
20260904065306 15 302 3.2 9.7 0.00 0.89 0.05 81 1011.7
20260904063804 14 283 0.0 0.0 0.00 0.89 0.05 84 1011.6
20260904063304 14 288 1.6 11.3 0.00 0.89 0.05 84 1011.6
20260904062306 14 244 0.0 3.2 0.00 0.89 0.05 83 1011.4
20260904061806 14 284 0.0 1.6 0.00 0.89 0.05 83 1011.3
20260904061304 14 279 1.6 8.0 0.00 0.89 0.05 82 1011.3
20260904060805 15 293 1.6 3.2 0.00 0.89 0.05 82 1011.3
20260904060305 15 274 1.6 4.8 0.00 0.89 0.05 82 1011.1
20260904055805 15 299 4.8 11.3 0.00 0.89 0.05 82 1011.0
20260904055306 15 287 3.2 9.7 0.00 0.89 0.05 83 1011.1
20260904054805 15 296 1.6 9.7 0.00 0.89 0.05 83 1011.1
20260904054306 14 296 1.6 9.7 0.00 0.89 0.05 84 1011.1
20260904053806 14 291 1.6 8.0 0.00 0.89 0.05 84 1010.8
20260904053304 14 275 0.0 8.0 0.00 0.89 0.05 85 1010.8
20260904052805 14 297 0.0 1.6 0.00 0.89 0.05 84 1010.8
20260904052307 14 242 0.0 3.2 0.00 0.89 0.05 85 1010.7
20260904051806 14 280 0.0 4.8 0.00 0.89 0.05 85 1010.7
20260904051305 14 292 1.6 4.8 0.00 0.89 0.05 86 1010.5
20260904050806 14 276 0.0 9.7 0.00 0.89 0.05 87 1010.6
20260904045805 14 280 0.0 4.8 0.00 0.89 0.05 91 1010.7
20260904045307 14 299 1.6 16.1 0.00 0.89 0.05 93 1010.5
20260904044807 14 310 0.0 0.0 0.00 0.89 0.05 94 1010.6
20260904044306 14 310 0.0 0.0 0.00 0.89 0.05 94 1010.2
20260904043305 14 310 0.0 0.0 0.00 0.89 0.05 94 1010.3
20260904042805 15 310 0.0 1.6 0.00 0.89 0.05 94 1010.3
20260904042306 15 309 0.0 1.6 0.00 0.89 0.05 94 1010.1
20260904041306 15 137 0.0 3.2 0.00 0.89 0.05 94 1010.1
20260904040305 15 95 0.0 1.6 0.00 0.89 0.05 94 1010.0
20260904035807 15 1 0.0 0.0 0.00 0.89 0.05 94 1010.2
20260904035306 15 272 0.0 3.2 0.00 0.89 0.05 94 1010.5
20260904034806 15 266 0.0 4.8 0.00 0.89 0.05 94 1010.0
20260904034305 15 309 3.2 9.7 0.00 0.89 0.05 94 1010.2
20260904033806 15 318 1.6 8.0 0.00 0.89 0.05 94 1010.2
20260904033307 15 283 1.6 9.7 0.00 0.89 0.05 94 1010.1
20260904032807 15 292 1.6 4.8 0.00 0.89 0.05 94 1010.0
20260904030806 15 296 3.2 9.7 0.03 0.89 0.05 94 1009.6
20260904030307 15 299 1.6 9.7 0.03 0.89 0.05 94 1009.6
20260904025807 15 291 1.6 9.7 0.03 0.89 0.05 94 1009.6
20260904025306 15 310 4.8 9.7 0.03 0.89 0.05 94 1009.7
20260904024806 15 299 3.2 8.0 0.03 0.89 0.05 94 1009.6
20260904024307 15 302 3.2 8.0 0.03 0.89 0.05 94 1009.5
20260904023806 15 303 0.0 3.2 0.03 0.89 0.05 94 1009.6
20260904023306 15 284 0.0 4.8 0.03 0.89 0.05 94 1009.5
20260904022806 15 300 1.6 9.7 0.05 0.89 0.05 94 1009.5
20260904021806 15 291 1.6 11.3 0.05 0.89 0.05 94 1009.4
20260904021306 15 268 3.2 9.7 0.03 0.89 0.05 95 1009.6
20260904020807 15 285 1.6 8.0 0.03 0.89 0.05 96 1009.7
20260904014806 15 303 1.6 4.8 0.03 0.89 0.05 97 1009.5
20260904014308 15 271 0.0 1.6 0.05 0.89 0.05 97 1009.2
20260904013808 15 257 0.0 3.2 0.05 0.89 0.05 97 1009.3
20260904013306 15 277 0.0 3.2 0.05 0.89 0.05 97 1009.3
20260904012809 15 274 0.0 1.6 0.03 0.86 0.03 97 1009.5
20260904012307 15 311 0.0 1.6 0.03 0.86 0.03 97 1009.4
20260904011807 15 279 0.0 3.2 0.03 0.86 0.03 97 1009.4
20260904011308 15 269 0.0 0.0 0.03 0.86 0.03 97 1009.3
20260904010807 15 268 0.0 0.0 0.03 0.86 0.03 97 1009.0
20260904005807 15 269 0.0 0.0 0.03 0.86 0.03 97 1009.0
20260904005307 15 268 0.0 1.6 0.03 0.86 0.03 97 1009.0
20260904004807 15 268 0.0 0.0 0.03 0.86 0.03 97 1009.0
20260904004309 15 268 0.0 1.6 0.00 0.84 0.00 97 1009.2
20260904003807 15 295 0.0 3.2 0.00 0.84 0.00 97 1009.0
20260904002309 15 300 1.6 8.0 0.00 0.84 0.00 97 1008.9
20260904001807 15 305 0.0 1.6 0.00 0.84 0.00 97 1009.1
20260904001309 15 285 1.6 4.8 0.00 0.84 0.00 97 1009.1
20260904000808 15 291 1.6 9.7 0.00 0.84 0.00 97 1009.0
20260904000308 15 301 1.6 8.0 0.00 0.84 0.00 97 1009.1
20260903235808 15 306 1.6 9.7 0.00 0.84 0.00 97 1008.9
20260903235309 15 295 1.6 4.8 0.00 0.84 0.00 97 1008.8
20260903234808 15 281 0.0 1.6 0.00 0.84 0.00 97 1008.7
20260903234307 15 138 0.0 1.6 0.00 0.84 0.00 97 1008.4
20260903233808 15 138 0.0 1.6 0.00 0.84 0.00 97 1008.4
20260903233309 15 280 0.0 1.6 0.03 0.84 0.00 97 1008.4
20260903232808 15 275 0.0 1.6 0.03 0.84 0.00 97 1008.5
20260903232307 15 275 0.0 1.6 0.03 0.84 0.00 97 1008.3
20260903231809 15 278 0.0 1.6 0.03 0.84 0.00 97 1008.4
20260903231309 15 271 0.0 1.6 0.05 0.84 0.00 97 1008.6
20260903230826 15 314 0.0 1.6 0.05 0.84 0.00 97 1008.5
20260903230308 15 294 0.0 1.6 0.05 0.84 0.00 97 1008.5
20260903225808 15 307 0.0 4.8 0.05 0.84 0.84 97 1008.4
20260903225310 15 302 1.6 3.2 0.08 0.84 0.84 97 1008.4
20260903224808 15 305 1.6 3.2 0.13 0.84 0.84 97 1008.2
20260903224308 15 315 1.6 4.8 0.15 0.84 0.84 97 1008.3
20260903223808 15 295 3.2 9.7 0.15 0.84 0.84 97 1008.5
20260903223310 15 305 0.0 3.2 0.15 0.81 0.81 97 1008.5
20260903222308 15 309 1.6 9.7 0.15 0.81 0.81 97 1008.6
20260903221810 15 313 1.6 4.8 0.15 0.81 0.81 97 1008.5
20260903220808 15 315 4.8 9.7 0.15 0.79 0.79 96 1008.3
20260903220308 15 314 6.4 11.3 0.15 0.79 0.79 96 1008.3
20260903215808 15 305 9.7 14.5 0.18 0.79 0.79 96 1008.3
20260903213309 16 102 1.6 4.8 0.30 0.69 0.69 96 1008.1
20260903212309 16 107 0.0 3.2 0.41 0.66 0.66 96 1008.3
20260903211308 16 308 0.0 0.0 0.46 0.64 0.64 96 1008.7
20260903210809 16 308 0.0 0.0 0.51 0.64 0.64 96 1008.7
20260903210309 16 355 0.0 0.0 0.51 0.61 0.61 96 1008.8
20260903205810 16 19 0.0 0.0 0.53 0.61 0.61 96 1008.9
20260903205309 16 101 0.0 0.0 0.56 0.61 0.61 96 1009.1
20260903204811 16 270 0.0 0.0 0.51 0.56 0.56 96 1009.1
20260903204320 16 271 0.0 3.2 0.51 0.51 0.51 96 1009.4
20260903203811 16 292 3.2 8.0 0.46 0.48 0.48 95 1009.5
20260903203315 16 259 1.6 4.8 0.38 0.41 0.41 95 1009.6
20260903202812 16 286 1.6 4.8 0.36 0.36 0.36 95 1009.6
20260903202320 16 287 1.6 4.8 0.30 0.30 0.30 95 1009.7
20260903201811 16 271 0.0 1.6 0.23 0.23 0.23 95 1010.0
20260903201309 16 304 0.0 3.2 0.20 0.20 0.20 95 1010.0
20260903200811 16 286 1.6 3.2 0.15 0.15 0.15 95 1010.1
20260903200309 16 282 0.0 0.0 0.13 0.13 0.13 94 1010.2
20260903195810 16 309 0.0 1.6 0.08 0.08 0.08 94 1010.3
20260903195310 16 271 0.0 1.6 0.05 0.05 0.05 94 1010.4
20260903194810 16 291 1.6 3.2 0.05 0.05 0.05 93 1010.4
20260903194309 16 298 0.0 1.6 0.05 0.05 0.05 92 1010.3
20260903193809 16 191 0.0 4.8 0.03 0.03 0.03 92 1010.4
20260903193310 16 301 1.6 9.7 0.03 0.03 0.03 91 1010.4
20260903192811 17 280 1.6 4.8 0.03 0.03 0.03 90 1010.6
20260903192309 17 308 1.6 9.7 0.00 0.00 0.00 89 1010.8
20260903191809 17 293 1.6 9.7 0.00 0.00 0.00 88 1010.7
20260903191310 17 308 4.8 11.3 0.00 0.00 0.00 88 1010.7
20260903190810 17 308 3.2 9.7 0.00 0.00 0.00 89 1010.7
20260903190310 17 302 3.2 9.7 0.00 0.00 0.00 90 1010.8
20260903185809 17 275 1.6 11.3 0.00 0.00 0.00 90 1011.0
20260903185310 17 307 3.2 11.3 0.00 0.00 0.00 90 1011.2
20260903184810 17 302 4.8 16.1 0.00 0.00 0.00 90 1011.5
20260903184311 17 298 6.4 12.9 0.00 0.00 0.00 90 1011.6
20260903183810 17 303 4.8 11.3 0.00 0.00 0.00 90 1011.6
20260903183309 17 291 3.2 11.3 0.00 0.00 0.00 89 1011.6
20260903181810 17 315 4.8 12.9 0.00 0.00 0.00 89 1011.8
20260903181310 17 287 4.8 12.9 0.00 0.00 0.00 88 1011.9
20260903180810 17 306 3.2 9.7 0.00 0.00 0.00 89 1011.9
20260903180310 17 301 4.8 12.9 0.00 0.00 0.00 89 1011.9
20260903175810 17 306 4.8 11.3 0.00 0.00 0.00 89 1011.9
20260903175311 17 288 8.0 14.5 0.00 0.00 0.00 89 1012.0
20260903174812 17 303 6.4 20.9 0.00 0.00 0.00 89 1012.2
20260903174310 17 287 8.0 16.1 0.00 0.00 0.00 88 1012.2
20260903173810 17 290 4.8 14.5 0.00 0.00 0.00 88 1012.3
20260903173312 17 303 4.8 12.9 0.00 0.00 0.00 88 1012.1
20260903172811 17 299 6.4 22.5 0.00 0.00 0.00 89 1012.1
20260903172311 17 295 9.7 19.3 0.00 0.00 0.00 89 1012.5
20260903171812 17 311 6.4 19.3 0.00 0.00 0.00 89 1012.4